Zurück zum Katalog

EXPLORER 40

INJUN-5

AktivWissenschaftPO
NORAD 3338·PAYLOAD·🇺🇸 United States

Gestartet Aug 8, 1968 von Vandenberg Space Force Base

Loading…

Nächste Überflüge (nächste 24 Stunden)

TLE

AktuellSource: Space-Track

Epoche: Sep 14, 2026, 13:34 UTC

1 03338U 68066B   26257.56581731  .00000047  00000-0  31761-4 0  9994
2 03338  80.6661  18.5346 1129525 117.4028 254.6481 12.23589308589240

Verfolge EXPLORER 40 in Echtzeit mit AllMySat

Download on the App Store